TimeCST,TemperatureF,Dew PointF,Humidity,Sea Level PressureIn,VisibilityMPH,Wind Direction,Wind SpeedMPH,Gust SpeedMPH,PrecipitationIn,Events,Conditions,WindDirDegrees,DateUTC
12:53 AM,46.0,44.1,93,29.91,9.0,West,3.5,-,N/A,,Clear,270,2013-01-11 06:53:00
1:53 AM,45.0,44.1,97,29.92,7.0,South,3.5,-,N/A,,Clear,190,2013-01-11 07:53:00
2:53 AM,43.0,42.1,97,29.94,5.0,ENE,3.5,-,N/A,,Clear,60,2013-01-11 08:53:00
3:53 AM,42.1,39.9,92,29.91,7.0,Calm,Calm,-,N/A,,Clear,0,2013-01-11 09:53:00
4:53 AM,42.1,39.9,92,29.91,5.0,Calm,Calm,-,N/A,,Clear,0,2013-01-11 10:53:00
5:34 AM,41.0,39.2,93,29.90,2.5,Calm,Calm,-,N/A,,Clear,0,2013-01-11 11:34:00
5:44 AM,39.2,39.2,100,29.91,4.0,Calm,Calm,-,N/A,,Clear,0,2013-01-11 11:44:00
5:53 AM,41.0,39.9,96,29.91,6.0,South,3.5,-,N/A,,Clear,190,2013-01-11 11:53:00
6:53 AM,44.1,43.0,96,29.92,10.0,South,4.6,-,N/A,,Clear,170,2013-01-11 12:53:00
7:53 AM,44.1,43.0,96,29.95,9.0,Calm,Calm,-,N/A,,Clear,0,2013-01-11 13:53:00
8:53 AM,48.9,46.0,90,29.95,10.0,SE,3.5,-,0.01,,Clear,130,2013-01-11 14:53:00
9:53 AM,54.0,48.0,80,29.94,10.0,South,8.1,-,N/A,,Clear,170,2013-01-11 15:53:00
10:53 AM,55.9,48.0,75,29.94,10.0,Variable,3.5,-,N/A,,Clear,0,2013-01-11 16:53:00
11:53 AM,61.0,48.0,62,29.91,10.0,SSW,6.9,-,N/A,,Clear,200,2013-01-11 17:53:00
12:53 PM,64.9,46.0,50,29.87,10.0,SSW,8.1,18.4,N/A,,Clear,200,2013-01-11 18:53:00
2:53 PM,68.0,44.1,42,29.84,10.0,South,4.6,-,N/A,,Clear,180,2013-01-11 20:53:00
3:53 PM,66.9,45.0,45,29.83,10.0,SE,5.8,-,N/A,,Clear,140,2013-01-11 21:53:00
4:53 PM,62.1,46.0,56,29.85,10.0,SE,5.8,-,N/A,,Clear,140,2013-01-11 22:53:00
5:53 PM,55.0,46.9,74,29.86,10.0,Calm,Calm,-,N/A,,Clear,0,2013-01-11 23:53:00
6:53 PM,55.9,46.9,72,29.85,10.0,ESE,4.6,-,N/A,,Clear,120,2013-01-12 00:53:00
7:53 PM,55.0,46.9,74,29.86,10.0,Calm,Calm,-,N/A,,Clear,0,2013-01-12 01:53:00
8:53 PM,53.1,48.0,83,29.87,10.0,Calm,Calm,-,N/A,,Clear,0,2013-01-12 02:53:00
9:53 PM,50.0,46.9,89,29.88,10.0,Calm,Calm,-,N/A,,Clear,0,2013-01-12 03:53:00
10:53 PM,48.9,46.0,90,29.87,10.0,Calm,Calm,-,N/A,,Clear,0,2013-01-12 04:53:00
11:53 PM,51.1,48.0,89,29.87,10.0,SSE,3.5,-,N/A,,Clear,150,2013-01-12 05:53:00